Flag for U.S.A. Weather past 2 weeks in New Bedford, Massachusetts, U.S.A.

Now
57 °F

Light rain. Fog.


Feels Like: 54 °F
Forecast: 52 / 60 °F
Wind: 12 mph from North

Location: New Bedford Regional Airport

Current Time: Oct 23, 2014 at 5:59:33 PM

Latest Report: Oct 23, 2014 at 4:53 PM


Visibility: 4 mi

Pressure: 29.51 "Hg

Humidity: 93%

Dew point: 55 °F

Location of New BedfordLocation

Historic Weather in New Bedford — Graph

°F

New Bedford temperature yesterday

Maximum temperature yesterday: 57 °F (at 8:53 AM)
Minimum temperature yesterday: 53 °F (at 4:53 AM)
Average temperature yesterday: 55 °F

Past Weeks' High & Low Weather Summary

 TemperatureHumidityPressure
High77 °F (Oct 15, 11:53 AM)100% (Oct 13, 5:53 AM)30.36 "Hg (Oct 13, 5:53 AM)
Low32 °F (Oct 20, 6:53 AM)34% (Oct 9, 1:53 PM)29.50 "Hg (Oct 18, 3:53 PM)
Average57 °F80%29.95 "Hg
* Reported Oct 8 4:53 PM — Oct 23 4:53 PM, New Bedford, Weather by CustomWeather, © 2014

Note: Actual official high and low records may vary slightly from our data, if they occured in-between our weather recording intervals... More about our weather records

Advertising

New Bedford weather history for previous 24 hours

 ConditionsComfort  
Time TempWeatherWind HumidityBarometerVisibility
4:53 PM
Oct 23
57 °FLight rain. Fog.12 mph93%29.51 "Hg4 mi
3:53 PM58 °FLight rain. Low clouds.9 mph93%29.50 "Hg8 mi
2:53 PM58 °FLow clouds.7 mph90%29.51 "Hg10 mi
1:53 PM58 °FLow clouds.10 mph93%29.52 "Hg7 mi
12:53 PM57 °FLow clouds.13 mph93%29.53 "Hg7 mi
11:53 AM56 °FLight rain. Low clouds.9 mph90%29.56 "Hg10 mi
10:53 AM56 °FOvercast.12 mph87%29.56 "Hg10 mi
9:53 AM56 °FOvercast.12 mph87%29.57 "Hg10 mi
8:53 AM55 °FLow clouds.9 mph90%29.56 "Hg10 mi
7:53 AM55 °FLow clouds.14 mph93%29.55 "Hg10 mi
6:53 AM57 °FLow clouds.12 mph93%29.54 "Hg10 mi
5:53 AM57 °FLow clouds.9 mph96%29.54 "Hg10 mi
4:53 AM54 °FLight rain. Fog.14 mph97%29.54 "Hg3 mi
3:53 AM55 °FLow clouds.16 mph93%29.56 "Hg10 mi
2:53 AM56 °FLow clouds.15 mph93%29.58 "Hg10 mi
1:53 AM55 °FLow clouds.10 mph96%29.63 "Hg10 mi
1:03 AM56 °FLight rain. Mostly cloudy.10 mph93%29.68 "Hg10 mi
12:01 AM57 °FLight rain. Overcast.13 mph100%29.69 "Hg10 mi
10:53 PM
Oct 22
56 °FRain. Fog.15 mph93%29.70 "Hg5 mi
9:55 PM56 °FLight rain. Fog.21 mph93%29.70 "Hg2 mi
9:00 PM56 °FHeavy rain. Fog.21 mph93%29.72 "Hg3 mi
7:53 PM56 °FLight rain. Fog.18 mph97%29.70 "Hg6 mi
6:53 PM57 °FLight rain. Fog.17 mph93%29.73 "Hg3 mi
5:53 PM54 °FRain. Fog.12 mph93%29.75 "Hg6 mi
Weather by CustomWeather, © 2014

See weather overviewHow to use our weather pages